This is the latest recevied weather packets stored in our database for station/object SQ2LXT-10. If no packets are shown the sender has not sent any weather packets the latest 10 day(s).
| Time | Temp. | Humidity | Pressure | Rain* | Wind** | Luminosity | Snow |
|---|---|---|---|---|---|---|---|
| 1778010347 | 11.11° C | 100% | 1003.6 hPa | - | - | - | - |
| 1778009447 | 11.11° C | 100% | 1003.5 hPa | - | - | - | - |
| 1778008547 | 11.11° C | 100% | 1003.6 hPa | - | - | - | - |
| 1778007646 | 11.67° C | 100% | 1003.6 hPa | - | - | - | - |
| 1778006746 | 11.67° C | 100% | 1003.2 hPa | - | - | - | - |
| 1778005847 | 11.67° C | 100% | 1003.2 hPa | - | - | - | - |
| 1778004946 | 12.22° C | 100% | 1003.3 hPa | - | - | - | - |
| 1778004046 | 12.22° C | 100% | 1003.3 hPa | - | - | - | - |
| 1778003146 | 12.22° C | 100% | 1003.1 hPa | - | - | - | - |
| 1778002246 | 12.78° C | 100% | 1003.1 hPa | - | - | - | - |
| 1778001346 | 12.78° C | 100% | 1003 hPa | - | - | - | - |
| 1778000450 | 13.33° C | 100% | 1003 hPa | - | - | - | - |
| 1777999546 | 13.33° C | 100% | 1003 hPa | - | - | - | - |
| 1777998650 | 13.89° C | 100% | 1003.3 hPa | - | - | - | - |
| 1777997746 | 14.44° C | 100% | 1003.3 hPa | - | - | - | - |
| 1777996846 | 14.44° C | 100% | 1003.3 hPa | - | - | - | - |
| 1777995946 | 15° C | 97% | 1003.3 hPa | - | - | - | - |
| 1777995049 | 16.11° C | 87% | 1003.2 hPa | - | - | - | - |
| 1777994146 | 16.67° C | 80% | 1003.3 hPa | - | - | - | - |
| 1777993250 | 17.78° C | 73% | 1003 hPa | - | - | - | - |
| 1777992349 | 18.89° C | 80% | 1003 hPa | - | - | - | - |
| 1777991449 | 18.89° C | 89% | 1003 hPa | - | - | - | - |
| 1777990549 | 20° C | 92% | 1003 hPa | - | - | - | - |
| 1777989645 | 19.44° C | 96% | 1003.1 hPa | - | - | - | - |
| 1777988745 | 20.56° C | 94% | 1003.2 hPa | - | - | - | - |
* Rain since midnight (hover to see other rain measurements)
** Current wind speed in m/s (hover to see current wind gust speed)